Regional Weather Roundup
Issued by NWS

Home | Current Version | Previous Version | Text Only | Print | Product List | Glossary On
Versions: 1 2 3 4 5 6 7 8 9 10 11 12 13 14 15 16 17 18 19 20 21 22 23 24 25 26 27 28 29 30 31 32 33 34 35 36 37 38 39 40 41 42 43 44 45 46 47 48 49 50
738
ASUS43 KMKX 191900
RWRWI

WISCONSIN REGIONAL WEATHER ROUNDUP
NATIONAL WEATHER SERVICE MILWAUKEE/SULLIVAN WI
200 PM CDT TUE SEP 19 2017

NOTE: "FAIR" INDICATES FEW OR NO CLOUDS BELOW 12,000 FEET WITH NO
SIGNIFICANT WEATHER AND/OR OBSTRUCTIONS TO VISIBILITY.

WIZ001-002-006>008-014>016-023>028-192000-
NORTHWEST WISCONSIN

CITY           SKY/WX    TMP DP  RH WIND       PRES   REMARKS
SUPERIOR ARPT  MOSUNNY   65  57  76 E14G20    29.90F
ASHLAND        MOSUNNY   75  60  59 N6        29.91F
HAYWARD        SUNNY     74  59  59 S15G21    29.91F
SIREN          PTSUNNY   74  60  61 SE12      29.88F
CUMBERLAND     PTSUNNY   72  59  64 SE12      29.90F
RICE LAKE      MOSUNNY   74  60  60 SE10      29.91F
CHETEK         MOSUNNY   74  63  67 SE12G17   29.91F
LADYSMITH      SUNNY     75  58  55 SE12      29.95F
EAU CLAIRE     MOSUNNY   76  61  59 SE12      29.89F
MENOMONIE      MOSUNNY   76  62  62 SE13      29.90F
NEW RICHMOND   MOSUNNY   75  60  60 SE10      29.87F
OSCEOLA        PTSUNNY   76  62  62 SE14      29.88F
$$

WIZ003>005-009-010-017-018-192000-
NORTH CENTRAL WISCONSIN

CITY           SKY/WX    TMP DP  RH WIND       PRES   REMARKS
MANITOWISH WTR MOSUNNY   72  54  52 S10G16    29.97F
ARBOR VITAE    SUNNY     72  56  56 S9        29.98F
WOODRUFF       SUNNY     72  56  56 S9        29.98F
RHINELANDER    MOSUNNY   74  56  53 S10       29.98F
EAGLE RIVER    SUNNY     72  52  48 SE9G16    29.98F
LAND O LAKES   SUNNY     73  53  49 S9        30.00F
PHILLIPS       MOSUNNY   73  57  57 S10       29.96F
TOMAHAWK         N/A     73  53  49 SE3       29.98F
MEDFORD        MOSUNNY   73  55  53 SE13G18   29.96F
MERRILL          N/A     75  55  50 SE9       29.98F
$$

WIZ029-030-035-036-043>047-192000-
CENTRAL WISCONSIN

CITY           SKY/WX    TMP DP  RH WIND       PRES   REMARKS
WAUSAU         SUNNY     74  54  49 S8G18     29.95F
MOSINEE        NOT AVBL
MARSHFIELD     SUNNY     76  53  44 SE12      29.95F
STEVENS POINT  SUNNY     73  53  49 E12       29.97F
WAUPACA        SUNNY     79  55  42 E7        29.97F
WAUTOMA        SUNNY     79  53  40 VRB7      29.95F
WISC RAPIDS    SUNNY     79  52  38 SE9       29.96F
CAMP DOUGLAS   NOT AVBL
$$

WIZ011>013-019>022-031-037>040-048>050-192000-
NORTHEAST WISCONSIN

CITY           SKY/WX    TMP DP  RH WIND       PRES   REMARKS
ANTIGO         SUNNY     70  58  65 SE12      29.99F
SHAWANO        PTSUNNY   75  61  62 SE7       29.99F
OCONTO         MOSUNNY   71  59  66 E6        29.99F
STURGEON BAY   SUNNY     71  57  61 VRB6      30.00F
GREEN BAY      MOSUNNY   74  61  63 E10       29.98F
MANITOWOC      SUNNY     68  59  73 VRB7      30.00F
APPLETON       PTSUNNY   73  57  56 E5        29.96F
CLINTONVILLE   MOSUNNY   73  59  60 E7        29.98F
OSHKOSH        SUNNY     74  62  66 E9        29.96F
$$

WIZ032>034-041-042-053>061-192000-
SOUTHWEST WISCONSIN

CITY           SKY/WX    TMP DP  RH WIND       PRES   REMARKS
LA CROSSE      PTSUNNY   80  64  58 SE14      29.89F HX  82
SPARTA         MOSUNNY   77  61  56 SE9       29.93F
VIROQUA        PTSUNNY   77  64  65 SE13      29.94F
BOSCOBEL       MOSUNNY   82  62  50 VRB6G18   29.91F HX  83
PRAIRIE DU CHI MOSUNNY   80  60  50 SE7       29.90F HX  81
PLATTEVILLE    MOSUNNY   80  64  59 S10       29.94F HX  81
$$

WIZ056-057-062-063-064-067-068-192000-
SOUTH CENTRAL WISCONSIN

CITY           SKY/WX    TMP DP  RH WIND       PRES   REMARKS
REEDSBURG      SUNNY     78  60  54 SE3       29.94F
BARABOO/DELLS  SUNNY     78  54  43 E5        29.95F
LONE ROCK      NOT AVBL
MINERAL POINT  PTSUNNY   79  64  61 E6        29.94F HX  81
MADISON        MOSUNNY   79  54  41 S10       29.94F
MIDDLETON      SUNNY     79  58  48 E7        29.95F HX  80
WATERTOWN      SUNNY     79  56  45 E8        29.95F HX  80
MONROE         SUNNY     79  61  53 E7        29.95F HX  80
JANESVILLE     MOSUNNY   81  63  54 E8        29.93F HX  82
$$

WIZ051-052-058>065-066-070>072-192000-
SOUTHEAST WISCONSIN

CITY           SKY/WX    TMP DP  RH WIND       PRES   REMARKS
MILWAUKEE      CLOUDY    70  66  87 E7        29.97F FOG
WAUKESHA       NOT AVBL
MILWAUKEE/TIMM CLOUDY    68  61  77 E5        29.99S HAZE
RACINE         CLOUDY    70  67  90 E12       29.98F FOG
BURLINGTON     SUNNY     76  65  67 E8        29.95S
KENOSHA        MOSUNNY   75  64  68 E9        29.96F
FOND DU LAC    SUNNY     77  55  46 SE7       29.96F
SHEBOYGAN      MOSUNNY   73  64  73 E9        29.98F
WEST BEND        N/A     72  61  68 E8        29.97F
JUNEAU         SUNNY     76  54  45 SE7       29.97F
$$

LSZ147-162-192000-
LAKE SUPERIOR

STATION/POSITION TIME  TEMP    WIND        PRES    WAVE
                       AIR SEA DIR/SP/G            HT/PER
                 (UTC) (F)     (DEG/KT/KT) (MB)    (FT/S)
W MID LAKE BUOY  1750   57 55   80/  6/  8 1015.1F   1/ 3
DEVILS ISLAND    1800   59      60/ 10/ 10 1014.4F
SAXON HARBOR     1840   65      30/  3/  5 1013.2F
$$

LMZ867-665-643>646-192000-
LAKE MICHIGAN

STATION/POSITION TIME  TEMP    WIND        PRES    WAVE
                       AIR SEA DIR/SP/G            HT/PER
                 (UTC) (F)     (DEG/KT/KT) (MB)    (FT/S)
S GREEN BAY BUOY 1830   69 67  100/  6/  6 1015.5F
N MID LAKE BUOY  1750   63 65   90/  8/  8 1017.7F   1/ 3
NORTHPORT PIER   1840   66     100/  7/  8 1016.3F
KEWAUNEE LAKESHO 1830   68      50/  2/  4 1015.4F
SHEBOYGAN LAKESH 1800   65      90/  5/  5 1015.6F
PORT WASHINGTON  1840   69      70/  5/  7 1015.9F
ATWATER BUOY     1739   66 68   90/ 10/ 12 1015.4F
MILWAUKEE LAKESH 1830   66      70/  9/  9   N/A
S MID LAKE BUOY  1750   66 68   60/  8/  8 1015.4F   1/ 3
KENOSHA   LAKESH 1800   69      60/  7/  9 1014.6
$$

TC  - TEMPERATURE IN CELSIUS
VSB - VISIBILITY IN STATUTE MILES
WCI - WIND CHILL INDEX
HX  - HEAT INDEX





USA.gov is the U.S. government's official web portal to all federal, state and local government web resources and services.